Weather History for Marathon, FL

Change the Weather History Date:

Thursday, October 6, 2011

  Actual Average Record
Temperature  
Mean Temperature 81 °F 82 °F  
Max Temperature 86 °F 87 °F 91 °F (2002)
Min Temperature 76 °F 77 °F 69 °F (2014)
Degree Days  
Heating Degree Days 0 0  
Month to date heating degree days 0 0  
Since 1 July heating degree days 0 0  
Cooling Degree Days 16 17  
Month to date cooling degree days 101 107  
Year to date cooling degree days 4441 4061  
Growing Degree Days 30 (Base 50)    
Moisture  
Dew Point 71 °F    
Average Humidity 75    
Maximum Humidity 85    
Minimum Humidity 65    
Precipitation  
Precipitation T in 0.16 in 1.29 in (1999)
Month to date precipitation 1.68 1.06  
Year to date precipitation 16.85 37.61  
Snow  
Snow 0.00 in - - ()
Month to date snowfall 0.0  
Since 1 July snowfall 0.0  
Since 1 September snowfall 0.0  
Snow Depth 0.00 in    
Sea Level Pressure  
Sea Level Pressure 29.97 in    
Wind  
Wind Speed 15 mph (NE)    
Max Wind Speed 23 mph    
Max Gust Speed 30 mph    
Visibility 10 miles    
Events      
T = Trace of Precipitation, MM = Missing Value Source: NWS Daily Summary

Daily Weather History Graph

Daily Weather History Graph

Search for Another Location

Airport:

Trip Planner

Search our weather history database for the weather conditions in past years. The results will help you decide how hot, cold, wet, or windy it might be!

Date:

Astronomy

Oct. 06, 2011 Rise Set
Actual Time 7:18 AM EDT 7:06 PM EDT
Civil Twilight 6:55 AM EDT 7:29 PM EDT
Nautical Twilight 6:28 AM EDT 7:55 PM EDT
Astronomical Twilight 6:02 AM EDT 8:21 PM EDT
Moon 3:52 PM EDT (10/6) 2:36 AM EDT (10/6)
Length of Visible Light 12h 33m
Length of Day
11h 48m
Waxing Gibbous, 75% of the Moon is Illuminated
Oct 6
Waxing Gibbous
Oct 11
Full
Oct 19
Last Quarter
Oct 26
New
Nov 2
First Quarter

Hourly Weather History & Observations

Time (EDT) Temp. Heat Index Dew Point Humidity Pressure Visibility Wind Dir Wind Speed Gust Speed Precip Events Conditions
12:53 AM 78.1 °F - 69.1 °F 74% 30.00 in 10.0 mi NE 12.7 mph - N/A   Partly Cloudy
1:53 AM 78.1 °F - 68.0 °F 71% 29.99 in 10.0 mi NNE 11.5 mph - N/A   Scattered Clouds
2:53 AM 78.1 °F - 68.0 °F 71% 29.97 in 10.0 mi NNE 12.7 mph - 0.00 in   Overcast
3:53 AM 77.0 °F - 69.1 °F 76% 29.96 in 10.0 mi NE 13.8 mph 20.7 mph N/A   Partly Cloudy
4:53 AM 77.0 °F - 70.0 °F 79% 29.96 in 10.0 mi NE 11.5 mph - N/A   Clear
5:53 AM 75.9 °F - 69.1 °F 79% 29.96 in 10.0 mi NE 11.5 mph - N/A   Clear
6:53 AM 77.0 °F - 69.1 °F 76% 29.97 in 10.0 mi NNE 10.4 mph - N/A   Clear
7:53 AM 75.9 °F - 70.0 °F 82% 29.98 in 10.0 mi NNE 10.4 mph - N/A   Clear
8:53 AM 78.1 °F - 71.1 °F 79% 29.99 in 10.0 mi NNE 10.4 mph - N/A   Clear
9:53 AM 79.0 °F - 71.1 °F 77% 30.01 in 10.0 mi NNE 11.5 mph - N/A   Partly Cloudy
11:53 AM 82.9 °F 88.0 °F 72.0 °F 69% 30.01 in 10.0 mi NE 12.7 mph - N/A   Clear
12:53 PM 84.9 °F 90.1 °F 71.1 °F 63% 29.99 in 10.0 mi NE 15.0 mph - N/A   Scattered Clouds
1:53 PM 84.9 °F 90.7 °F 72.0 °F 65% 29.98 in 10.0 mi NE 17.3 mph 24.2 mph N/A   Mostly Cloudy
2:53 PM 84.9 °F 90.7 °F 72.0 °F 65% 29.95 in 10.0 mi ENE 19.6 mph 25.3 mph N/A   Partly Cloudy
3:53 PM 84.9 °F 90.7 °F 72.0 °F 65% 29.94 in 10.0 mi ENE 16.1 mph 24.2 mph N/A   Clear
4:53 PM 84.9 °F 90.1 °F 71.1 °F 63% 29.94 in 10.0 mi NE 18.4 mph - N/A   Clear
5:53 PM 84.0 °F 89.0 °F 71.1 °F 65% 29.95 in 10.0 mi ENE 18.4 mph 24.2 mph N/A   Clear
6:53 PM 82.0 °F 86.3 °F 71.1 °F 69% 29.95 in 10.0 mi ENE 16.1 mph - N/A   Clear
7:53 PM 80.1 °F 84.2 °F 73.0 °F 79% 29.96 in 10.0 mi NE 18.4 mph 24.2 mph N/A   Clear
8:53 PM 80.1 °F 83.8 °F 72.0 °F 76% 29.98 in 10.0 mi ENE 18.4 mph 25.3 mph N/A   Clear
9:53 PM 79.0 °F - 71.1 °F 77% 29.99 in 10.0 mi ENE 21.9 mph 26.5 mph N/A   Clear
10:53 PM 78.1 °F - 72.0 °F 81% 29.99 in 10.0 mi ENE 16.1 mph 26.5 mph N/A   Clear
11:53 PM 78.1 °F - 73.0 °F 84% 29.99 in 10.0 mi ENE 17.3 mph 23.0 mph N/A   Mostly Cloudy